Find Starlink 11313

NORAD ID: 61255 Int'l Des: 2024-175 Owner: SPXS Country: US Constellation: starlink operational
LEOCIRCULAR

現在のビュー

3D地球を読み込み中...

About Starlink 11313

Starlink 11313 (NORAD 61255) is a starlink constellation satellite (v2 mini d2c) launched Sep 25, 2024 by SPXS of US. It operates in LEO, CIRCULAR orbit with a mass of 960.00 kg.

Starlink 11313について

説明を読み込み中...

次回通過

Passes for default location (London). Set your location on the main map for personalized predictions.

高度履歴

Loading altitude history...

軌道要素

1 61255U 24175N 26171.31358895 .00001920 00000-0 20712-4 0 9995
2 61255 53.1577 270.4407 0001119 84.1152 275.9993 15.69701201 99482
Epoch: Jun 20, 2026 • Age: 5 hours

現在のステータス

高度 365.4 km
速度 7.70 km/s
衛星直下点 52.51°N, 109.9°W
打ち上げ日 Sep 25, 2024
運用期間 1.7 years
タイプ internet

技術仕様

分類 Payload
質量 960.00 kg
乾燥質量 910.00 kg
総質量 960.00 kg
長さ 0.30 m
直径 4.10 m
スパン 29.00 m
形状 Box + pan
製造者 SPXS
バスタイプ Starlink V2MD
フェーズステータス In Orbit
所有者/国 SPXS/US

Most Searched